Date String (YYYY-MM-DD hh:mm:ss) UTC,Instrument flags,Ambient pressure (hPa),Sample flow (lpm),Bypass flow (lpm),Sample temperature (°C),Ambient temperature (°C),ASC tube jacket temperature (°C),LED temperature (°C),Box temperature (°C),Sample RH (%),Span deviation,Mass concentration (μg/m³),Mass concentration (μg/m³),Mass concentration (μg/m³)
DateTimeUTC,F1_M11,P_M11,Q1_M11,Q2_M11,T1_M11,T2_M11,T3_M11,T4_M11,T5_M11,U1_M11,ZSPAN_M11,X0_M11,X2_M11,X1_M11
2021-09-15 08:00:00,,0827.1,4.99,0.00,29.6,28.8,00.0,38.9,31.3,25.4,0002.2,0014.61,0008.29,0007.29
2021-09-15 08:01:00,,0826.9,5.01,0.00,29.6,28.8,00.0,38.9,31.3,25.7,0001.7,0014.67,0008.32,0007.28
2021-09-15 08:02:00,,0826.9,5.01,0.00,29.6,28.8,00.0,38.8,31.3,25.7,0001.2,0014.82,0008.38,0007.28
2021-09-15 08:03:00,,0826.9,5.00,0.00,29.6,28.8,00.0,38.8,31.3,25.5,0001.1,0014.72,0008.36,0007.27
2021-09-15 08:04:00,,0826.8,4.99,0.00,29.6,28.8,00.0,38.8,31.3,25.4,0001.0,0014.39,0008.33,0007.27
2021-09-15 08:05:00,,0826.8,5.01,0.00,29.6,28.8,00.0,38.8,31.2,25.5,0000.4,0013.95,0008.27,0007.27
2021-09-15 08:06:00,,0826.7,5.00,0.00,29.6,28.8,00.0,38.8,31.2,25.6,0000.6,0013.59,0008.27,0007.26
2021-09-15 08:07:00,,0826.7,4.99,0.00,29.5,28.8,00.0,38.8,31.3,25.6,0000.9,0013.54,0008.31,0007.27
2021-09-15 08:08:00,,0826.7,5.00,0.00,29.6,28.8,00.0,38.8,31.3,25.4,0001.0,0013.47,0008.32,0007.26
2021-09-15 08:09:00,,0826.7,5.00,0.00,29.5,28.8,00.0,38.8,31.3,25.4,0001.3,0013.91,0008.32,0007.25
2021-09-15 08:10:00,,0826.7,5.01,0.00,29.5,28.8,00.0,38.8,31.3,25.5,0001.5,0014.15,0008.30,0007.24
2021-09-15 08:11:00,,0826.7,5.00,0.00,29.5,28.8,00.0,38.8,31.3,25.5,0001.3,0013.64,0008.31,0007.24
2021-09-15 08:12:00,,0826.7,4.99,0.00,29.5,28.8,00.0,38.8,31.2,25.6,0001.7,0013.81,0008.31,0007.25
2021-09-15 08:13:00,,0826.7,5.01,0.00,29.5,28.8,00.0,38.8,31.2,25.6,0001.8,0013.65,0008.22,0007.24
2021-09-15 08:14:00,,0826.7,4.99,0.00,29.5,28.8,00.0,38.8,31.2,25.7,0001.9,0014.83,0008.22,0007.24
2021-09-15 08:15:00,,0826.7,5.00,0.00,29.5,28.8,00.0,38.8,31.2,25.7,0001.9,0015.19,0008.23,0007.24
2021-09-15 08:16:00,,0826.7,5.01,0.00,29.5,28.8,00.0,38.8,31.2,25.7,0002.1,0015.68,0008.28,0007.24
2021-09-15 08:17:00,,0826.7,4.99,0.00,29.5,28.8,00.0,38.8,31.2,25.5,0002.3,0015.66,0008.24,0007.24
2021-09-15 08:18:00,,0826.7,4.99,0.00,29.5,28.8,00.0,38.8,31.2,25.5,0002.4,0016.03,0008.20,0007.24
2021-09-15 08:19:00,,0826.7,5.00,0.00,29.5,28.8,00.0,38.8,31.2,25.7,0002.4,0016.07,0008.18,0007.24
2021-09-15 08:20:00,,0826.7,5.01,0.00,29.5,28.8,00.0,38.8,31.2,25.9,0002.0,0016.28,0008.20,0007.25
2021-09-15 08:21:00,,0826.7,5.00,0.00,29.6,28.8,00.0,38.8,31.3,25.8,0002.0,0016.21,0008.20,0007.24
2021-09-15 08:22:00,,0826.7,5.00,0.00,29.6,28.8,00.0,38.8,31.3,25.7,0002.3,0015.99,0008.17,0007.24
2021-09-15 08:23:00,,0826.7,5.00,0.00,29.6,28.8,00.0,38.8,31.3,25.6,0002.1,0015.87,0008.15,0007.23
2021-09-15 08:24:00,,0826.7,5.00,0.00,29.6,28.8,00.0,38.8,31.3,25.5,0002.2,0016.22,0008.15,0007.21
2021-09-15 08:25:00,,0826.7,4.99,0.00,29.6,28.8,00.0,38.8,31.3,25.7,0002.5,0016.05,0008.15,0007.21
2021-09-15 08:26:00,,0826.7,5.00,0.00,29.6,28.8,00.0,38.8,31.3,25.9,0002.7,0016.40,0008.23,0007.22
2021-09-15 08:27:00,,0826.7,5.00,0.00,29.6,28.9,00.0,38.8,31.3,26.2,0002.7,0016.24,0008.24,0007.21
2021-09-15 08:28:00,,0826.7,4.99,0.00,29.6,28.9,00.0,38.8,31.3,26.3,0002.5,0016.27,0008.26,0007.22
2021-09-15 08:29:00,,0826.7,5.01,0.00,29.6,28.9,00.0,38.8,31.3,27.2,0002.3,0015.73,0008.28,0007.24
2021-09-15 08:30:00,,0826.7,4.99,0.00,29.6,28.9,00.0,38.8,31.3,27.9,0002.4,0016.04,0008.37,0007.32
2021-09-15 08:31:00,,0826.7,5.00,0.00,29.6,28.9,00.0,38.8,31.3,27.6,0002.6,0016.11,0008.44,0007.38
2021-09-15 08:32:00,,0826.7,5.00,0.00,29.6,28.9,00.0,38.8,31.3,27.6,0003.0,0016.21,0008.57,0007.46
2021-09-15 08:33:00,,0826.7,5.00,0.00,29.6,28.9,00.0,38.8,31.3,27.9,0002.9,0016.39,0008.70,0007.53
2021-09-15 08:34:00,,0826.7,5.00,0.00,29.6,28.9,00.0,38.8,31.3,27.8,0003.0,0016.37,0008.76,0007.61
2021-09-15 08:35:00,,0826.7,5.01,0.00,29.6,28.9,00.0,38.8,31.4,27.3,0003.1,0016.22,0008.85,0007.68
2021-09-15 08:36:00,,0826.7,5.00,0.00,29.6,28.9,00.0,38.8,31.4,27.2,0003.0,0015.24,0008.85,0007.71
2021-09-15 08:37:00,,0826.7,4.98,0.00,29.6,28.9,00.0,38.8,31.4,27.9,0002.6,0014.76,0008.87,0007.76
2021-09-15 08:38:00,,0826.7,5.00,0.00,29.6,28.9,00.0,38.8,31.4,27.8,0002.4,0014.77,0008.91,0007.81
2021-09-15 08:39:00,,0826.7,5.00,0.00,29.6,28.9,00.0,38.8,31.4,27.8,0002.2,0014.88,0008.99,0007.87
2021-09-15 08:40:00,,0826.7,5.01,0.00,29.6,28.9,00.0,38.8,31.4,27.8,0002.2,0015.26,0009.02,0007.91
2021-09-15 08:41:00,,0826.6,5.01,0.00,29.7,28.9,00.0,38.8,31.4,27.5,0001.9,0015.93,0009.04,0007.91
2021-09-15 08:42:00,,0826.7,4.99,0.00,29.7,28.9,00.0,38.8,31.4,27.4,0002.0,0015.84,0009.03,0007.88
2021-09-15 08:43:00,,0826.7,5.01,0.00,29.7,28.9,00.0,38.8,31.4,27.4,0001.9,0015.67,0008.96,0007.85
2021-09-15 08:44:00,,0826.7,4.99,0.00,29.7,29.0,00.0,38.8,31.4,27.7,0001.8,0015.57,0008.87,0007.82
2021-09-15 08:45:00,,0826.6,5.01,0.00,29.7,29.0,00.0,38.8,31.4,28.0,0001.9,0015.61,0008.89,0007.82
2021-09-15 08:46:00,,0826.6,5.00,0.00,29.7,29.0,00.0,38.8,31.4,28.1,0001.8,0015.55,0008.90,0007.82
2021-09-15 08:47:00,,0826.6,5.01,0.00,29.7,29.0,00.0,38.8,31.4,27.7,0001.7,0015.45,0008.91,0007.83
2021-09-15 08:48:00,,0826.6,4.99,0.00,29.7,29.0,00.0,38.8,31.4,27.5,0001.6,0015.05,0008.87,0007.83
2021-09-15 08:49:00,,0826.6,5.01,0.00,29.7,29.0,00.0,38.8,31.5,27.4,0001.5,0014.95,0008.83,0007.80
2021-09-15 08:50:00,,0826.6,5.01,0.00,29.7,29.0,00.0,38.8,31.4,27.5,0001.3,0015.01,0008.80,0007.77
2021-09-15 08:51:00,,0826.5,5.00,0.00,29.7,29.0,00.0,38.8,31.5,27.4,0001.2,0014.72,0008.83,0007.76
2021-09-15 08:52:00,,0826.6,5.00,0.00,29.7,29.0,00.0,38.9,31.5,27.3,0001.5,0013.89,0008.75,0007.74
2021-09-15 08:53:00,,0826.5,5.01,0.00,29.7,29.0,00.0,38.9,31.4,27.5,0000.9,0013.48,0008.75,0007.75
2021-09-15 08:54:00,,0826.6,5.00,0.00,29.7,29.0,00.0,38.9,31.4,27.2,0000.4,0013.23,0008.75,0007.75
2021-09-15 08:55:00,,0826.6,4.99,0.00,29.7,29.0,00.0,38.9,31.4,25.9,0000.2,0013.43,0008.74,0007.73
2021-09-15 08:56:00,,0826.6,5.00,0.00,29.7,29.0,00.0,38.9,31.5,25.5,-000.2,0013.41,0008.67,0007.68
2021-09-15 08:57:00,,0826.6,4.98,0.00,29.7,29.0,00.0,38.9,31.5,25.0,-000.3,0013.43,0008.61,0007.64
2021-09-15 08:58:00,,0826.5,5.02,0.00,29.7,29.0,00.0,38.9,31.4,24.8,0000.3,0013.34,0008.57,0007.61
2021-09-15 08:59:00,,0826.5,4.99,0.00,29.7,29.0,00.0,38.9,31.4,24.7,0000.6,0013.62,0008.51,0007.54
